Commerce, GA

5:54 PM EDT on August 24, 2016 (GMT -0400)
Jefferson

Weather History for K19A - January, 2014

Change the Weather History Date:

Friday, January 24, 2014

  Actual Average (KGVL) Record (KGVL)
Temperature  
Mean Temperature 22 °F 42 °F  
Max Temperature 33 °F 51 °F 72 °F (1942)
Min Temperature 12 °F 33 °F 1 °F (1963)
Degree Days  
Heating Degree Days 42 23  
Month to date heating degree days 568  
Since 1 July heating degree days 1764  
Moisture  
Dew Point -19 °F    
Average Humidity 21    
Maximum Humidity 48    
Minimum Humidity 4    
Precipitation  
Precipitation 0.00 in 0.19 in 1.54 in (1965)
Month to date precipitation 3.66  
Year to date precipitation 3.66  
Sea Level Pressure  
Sea Level Pressure 30.46 in    
Wind  
Wind Speed 8 mph (WNW)    
Max Wind Speed 16 mph    
Max Gust Speed 21 mph    
Visibility 10 miles    
Events      
T = Trace of Precipitation, MM = Missing Value Source: NWS Daily Summary

Daily Weather History Graph

Daily Weather History Graph

Search for Another Location

Airport or City:

Trip Planner

Search our weather history database for the weather conditions in past years. The results will help you decide how hot, cold, wet, or windy it might be!

Date:

Astronomy

Jan. 24, 2014 Rise Set
Actual Time 7:36 AM EST 5:56 PM EST
Civil Twilight 7:09 AM EST 6:23 PM EST
Nautical Twilight 6:39 AM EST 6:53 PM EST
Astronomical Twilight 6:09 AM EST 7:23 PM EST
Moon 1:06 AM EST 12:11 PM EST
Length of Visible Light 11h 13m
Length of Day
10h 20m
Last Quarter, 45% of the Moon is Illuminated
Jan 24
Last Quarter
Jan 30
New
Feb 6
First Quarter
Feb 14
Full
Feb 22
Last Quarter

Hourly Weather History & Observations

Time (EST) Temp. Windchill Dew Point Humidity Pressure Visibility Wind Dir Wind Speed Gust Speed Precip Events Conditions
12:15 AM 24.8 °F 12.4 °F -16.6 °F 16% 30.46 in 10.0 mi NW 15.0 mph - N/A   Scattered Clouds
12:35 AM 23.0 °F 9.6 °F -18.4 °F 15% 30.47 in 10.0 mi NW 16.1 mph 19.6 mph N/A   Scattered Clouds
12:55 AM 23.0 °F 11.7 °F -16.6 °F 17% 30.48 in 10.0 mi NW 11.5 mph 18.4 mph N/A   Clear
1:15 AM 23.0 °F 9.6 °F -18.4 °F 15% 30.48 in 10.0 mi NW 16.1 mph - N/A   Scattered Clouds
1:35 AM 23.0 °F 10.6 °F -16.6 °F 17% 30.49 in 10.0 mi NW 13.8 mph 20.7 mph N/A   Scattered Clouds
1:55 AM 21.2 °F 7.8 °F -14.8 °F 20% 30.49 in 10.0 mi NW 15.0 mph - N/A   Clear
2:15 AM 21.2 °F 8.9 °F -13.0 °F 22% 30.50 in 10.0 mi NW 12.7 mph 17.3 mph N/A   Clear
2:35 AM 21.2 °F 10.1 °F -11.2 °F 24% 30.52 in 10.0 mi NW 10.4 mph - N/A   Clear
2:55 AM 19.4 °F 7.9 °F -9.4 °F 28% 30.53 in 10.0 mi NW 10.4 mph - N/A   Clear
3:15 AM 19.4 °F 9.5 °F -9.4 °F 28% 30.54 in 10.0 mi NW 8.1 mph - N/A   Clear
3:35 AM 19.4 °F 10.4 °F -7.6 °F 30% 30.55 in 10.0 mi NW 6.9 mph - N/A   Clear
3:55 AM 17.6 °F 8.2 °F -9.4 °F 30% 30.55 in 10.0 mi NNW 6.9 mph - N/A   Clear
4:15 AM 17.6 °F 7.3 °F -7.6 °F 32% 30.55 in 10.0 mi NNW 8.1 mph - N/A   Clear
4:35 AM 17.6 °F 6.4 °F -7.6 °F 32% 30.55 in 10.0 mi NW 9.2 mph - N/A   Clear
4:55 AM 17.6 °F 6.4 °F -7.6 °F 32% 30.55 in 10.0 mi NW 9.2 mph - N/A   Clear
5:15 AM 17.6 °F 6.4 °F -7.6 °F 32% 30.55 in 10.0 mi NNW 9.2 mph - N/A   Clear
5:35 AM 15.8 °F 4.2 °F -7.6 °F 35% 30.55 in 10.0 mi NW 9.2 mph - N/A   Clear
5:55 AM 15.8 °F 7.2 °F -7.6 °F 35% 30.55 in 10.0 mi NNW 5.8 mph - N/A   Clear
6:15 AM 14.0 °F 8.2 °F -5.8 °F 41% 30.55 in 10.0 mi NW 3.5 mph - N/A   Clear
6:35 AM 14.0 °F 8.2 °F -5.8 °F 41% 30.56 in 10.0 mi NNW 3.5 mph - N/A   Clear
6:55 AM 14.0 °F 8.2 °F -5.8 °F 41% 30.56 in 10.0 mi NW 3.5 mph - N/A   Clear
7:15 AM 14.0 °F 8.2 °F -5.8 °F 41% 30.57 in 10.0 mi WNW 3.5 mph - N/A   Clear
7:35 AM 14.0 °F 8.2 °F -5.8 °F 41% 30.57 in 10.0 mi NW 3.5 mph - N/A   Clear
7:55 AM 12.2 °F 6.1 °F -4.0 °F 48% 30.58 in 10.0 mi WNW 3.5 mph - N/A   Clear
8:15 AM 14.0 °F 5.1 °F -4.0 °F 45% 30.58 in 10.0 mi NW 5.8 mph - N/A   Clear
8:35 AM 15.8 °F 8.6 °F -4.0 °F 41% 30.58 in 10.0 mi NNW 4.6 mph - N/A   Clear
8:55 AM 17.6 °F 8.2 °F -5.8 °F 35% 30.58 in 10.0 mi NW 6.9 mph - N/A   Clear
9:15 AM 17.6 °F 9.3 °F -7.6 °F 32% 30.59 in 10.0 mi NW 5.8 mph - N/A   Clear
9:35 AM 19.4 °F 11.5 °F -7.6 °F 30% 30.59 in 10.0 mi NW 5.8 mph - N/A   Clear
9:55 AM 19.4 °F 11.5 °F -7.6 °F 30% 30.60 in 10.0 mi NW 5.8 mph - N/A   Clear
10:15 AM 21.2 °F 14.9 °F -13.0 °F 22% 30.60 in 10.0 mi NNW 4.6 mph - N/A   Clear
10:35 AM 23.0 °F 18.4 °F -16.6 °F 17% 30.60 in 10.0 mi North 3.5 mph - N/A   Clear
10:55 AM 23.0 °F 17.0 °F -20.2 °F 14% 30.60 in 10.0 mi North 4.6 mph - N/A   Clear
11:15 AM 23.0 °F - -20.2 °F 14% 30.59 in 10.0 mi Calm Calm - N/A   Clear
11:35 AM 26.6 °F 21.2 °F -22.0 °F 11% 30.57 in 10.0 mi NNW 4.6 mph - N/A   Clear
11:55 AM 26.6 °F - -23.8 °F 10% 30.56 in 10.0 mi Calm Calm - N/A   Clear
12:15 PM 26.6 °F - -27.4 °F 8% 30.55 in 10.0 mi Calm Calm - N/A   Clear
12:35 PM 28.4 °F 24.6 °F -25.6 °F 9% 30.52 in 10.0 mi ESE 3.5 mph - N/A   Clear
12:55 PM 28.4 °F - -36.4 °F 5% 30.50 in 10.0 mi Calm Calm - N/A   Clear
1:15 PM 30.2 °F 26.7 °F -43.6 °F 4% 30.47 in 10.0 mi NW 3.5 mph - N/A   Clear
1:35 PM 30.2 °F - -40.0 °F 4% 30.46 in 10.0 mi Calm Calm - N/A   Clear
1:55 PM 30.2 °F - -43.6 °F 4% 30.44 in 10.0 mi Calm Calm - N/A   Clear
2:15 PM 32.0 °F - - N/A% 30.43 in 10.0 mi Calm Calm - N/A   Clear
2:35 PM 32.0 °F 27.5 °F - N/A% 30.42 in 10.0 mi WNW 4.6 mph - N/A   Clear
2:55 PM 32.0 °F - - N/A% 30.41 in 10.0 mi Calm Calm - N/A   Clear
3:15 PM 32.0 °F 28.7 °F - N/A% 30.40 in 10.0 mi SW 3.5 mph - N/A   Clear
3:35 PM 32.0 °F - - N/A% 30.40 in 10.0 mi Calm Calm - N/A   Clear
3:55 PM 32.0 °F - - N/A% 30.39 in 10.0 mi Calm Calm - N/A   Clear
4:15 PM 33.8 °F 30.8 °F - N/A% 30.38 in 10.0 mi South 3.5 mph - N/A   Clear
4:35 PM 33.8 °F 30.8 °F - N/A% 30.37 in 10.0 mi SW 3.5 mph - N/A   Clear
4:55 PM 32.0 °F - - N/A% 30.36 in 10.0 mi Calm Calm - N/A   Clear
5:15 PM 32.0 °F 26.4 °F - N/A% 30.37 in 10.0 mi West 5.8 mph - N/A   Clear
5:35 PM 32.0 °F 27.5 °F - N/A% 30.36 in 10.0 mi SSW 4.6 mph - N/A   Clear
5:55 PM 32.0 °F 28.7 °F - N/A% 30.36 in 10.0 mi SSW 3.5 mph - N/A   Clear
6:15 PM 32.0 °F - - N/A% 30.35 in 10.0 mi Calm Calm - N/A   Clear
6:35 PM 32.0 °F - - N/A% 30.35 in 10.0 mi Calm Calm - N/A   Clear
6:55 PM 30.2 °F - - N/A% 30.34 in 10.0 mi Calm Calm - N/A   Clear
7:15 PM 30.2 °F - -47.2 °F 4% 30.34 in 10.0 mi Calm Calm - N/A   Clear
7:35 PM 28.4 °F - -36.4 °F 5% 30.34 in 10.0 mi Calm Calm - N/A   Clear
7:55 PM 30.2 °F - -45.4 °F 4% 30.33 in 10.0 mi Calm Calm - N/A   Clear
8:15 PM 30.2 °F - -41.8 °F 4% 30.33 in 10.0 mi Calm Calm - N/A   Clear
8:35 PM 28.4 °F 24.6 °F -34.6 °F 5% 30.31 in 10.0 mi South 3.5 mph - N/A   Clear
8:55 PM 28.4 °F 24.6 °F -34.6 °F 5% 30.31 in 10.0 mi South 3.5 mph - N/A   Clear
9:15 PM 28.4 °F 24.6 °F -34.6 °F 5% 30.31 in 10.0 mi South 3.5 mph - N/A   Clear
9:35 PM 28.4 °F 24.6 °F -31.0 °F 6% 30.30 in 10.0 mi South 3.5 mph - N/A   Clear
9:55 PM 26.6 °F 22.6 °F -27.4 °F 8% 30.29 in 10.0 mi South 3.5 mph - N/A   Clear
10:15 PM 26.6 °F 21.2 °F -27.4 °F 8% 30.28 in 10.0 mi SSW 4.6 mph - N/A   Clear
10:35 PM 26.6 °F 22.6 °F -22.0 °F 11% 30.28 in 10.0 mi SW 3.5 mph - N/A   Clear
10:55 PM 26.6 °F 21.2 °F -18.4 °F 13% 30.27 in 10.0 mi SW 4.6 mph - N/A   Clear
11:15 PM 26.6 °F 22.6 °F -18.4 °F 13% 30.27 in 10.0 mi WSW 3.5 mph - N/A   Clear
11:35 PM 26.6 °F 21.2 °F -18.4 °F 13% 30.26 in 10.0 mi SW 4.6 mph - N/A   Clear
11:55 PM 23.0 °F - -16.6 °F 17% 30.26 in 10.0 mi Calm Calm - N/A   Clear